User: anonymous   Login
Location: Oshawa
(43.9000°N, 78.8670°W)
Time: 03:54:56
(UTC-04:00)
Language:

Cosmos 1408 Rocket - Orbit

View from above orbital plane
View from above orbital plane
View from above satellite
View from above satellite

Ground track
Ground track

The orbit data is extracted from the following two-line orbital elements,

1 13553U 82092B   15108.87184672  .00000800  00000-0  93140-4 0  9995
2 13553 082.5684 250.2721 0022690 133.5406 027.4229 14.83859476759824
Epoch (UTC): 18 April 2015 20:55:27
Eccentricity: 0.0022690
inclination: 82.5684°
perigee height: 601 km
apogee height: 633 km
right ascension of ascending node: 250.2721°
argument of perigee: 133.5406°
revolutions per day: 14.83859476
mean anomaly at epoch: 27.4229°
orbit number at epoch: 75982

The dashed part of the orbit path shows where the satellite is in the earth's shadow,  

DLR